Regional Weather Roundup
Issued by NWS Cleveland, OH

Home | Current Version | Previous Version | Text Only | Print | Product List | Glossary Off
Versions: 1 2 3 4 5 6 7 8 9 10 11 12 13 14 15 16 17 18 19 20 21 22 23 24 25 26 27 28 29 30 31 32 33 34 35 36 37 38 39 40 41 42 43 44 45 46 47 48 49 50

000
ASUS41 KCLE 171110
RWRCLE
OHIO REGIONAL WEATHER ROUNDUP
NATIONAL WEATHER SERVICE CLEVELAND, OH
700 AM EDT THU APR 17 2014

NOTE: "FAIR" INDICATES FEW OR NO CLOUDS BELOW 12,000 FEET WITH NO
SIGNIFICANT WEATHER AND/OR OBSTRUCTIONS TO VISIBILITY.

OHZ001>008-015>018-024>027-034-035-043-044-171200-
   NORTHWEST OHIO

CITY           SKY/WX    TMP DP  RH WIND       PRES   REMARKS
DEFIANCE       CLEAR     31  23  72 E5        30.31R WCI  26
FINDLAY        CLEAR     34  23  64 SE9       30.30R WCI  27
TOLEDO EXPRESS PTCLDY    32  21  64 E5        30.31R WCI  27
TOLEDO EXEC    PTCLDY    35  21  56 E5        30.33R
LIMA           CLEAR     37  23  56 SE12      30.28R
$$

OHZ009>014-019>023-028>033-038-089-171200-
   NORTHEAST OHIO

CITY           SKY/WX    TMP DP  RH WIND       PRES   REMARKS
CLE-HOPKINS    MOCLDY    39  19  44 SE13      30.38R
CLE-LAKEFRONT  PTCLDY    39  18  42 SE18G25   30.35R
CUY CO. ARPT   PTCLDY    37  18  44 S12G23    30.36
LORAIN-ELYRIA  PTCLDY    39  21  48 S14       30.35R
ASHTABULA      CLEAR     36  17  46 SE13G21   30.41R
AKRON-CANTON   MOCLDY    35  17  47 SE9       30.38R WCI  28
WOOSTER        CLEAR     34  21  59 SE9       30.37R WCI  27
MANSFIELD      CLEAR     35  21  56 SE13      30.33R WCI  26
YOUNGSTOWN     MOCLDY    35  16  45 SE12      30.40R WCI  27
$$

OHZ042-051>053-060>062-070>072-077>081-171200-
  SOUTHWEST OHIO

CITY           SKY/WX    TMP DP  RH WIND       PRES   REMARKS
CINC-COVINGTON PTCLDY    38  24  57 S7        30.30R
CINC-LUNKEN    CLEAR     30  28  92 CALM      30.33R
HAMILTON       CLEAR     33  26  75 CALM      30.32R
DAYTON         PTCLDY    34  24  67 SE6       30.30S WCI  29
WRIGHT-PAT AFB CLEAR     35  22  59 E1        30.31R
DAYTON GENERAL CLEAR     36  24  62 S7        30.29R
WILMINGTON     PTCLDY    37  24  59 S7        30.31R
$$

OHZ036-037-039>041-045>050-054>059-063>069-073>076-082>088-171200-
  CENTRAL AND SOUTHEAST OHIO

CITY           SKY/WX    TMP DP  RH WIND       PRES   REMARKS
COLUMBUS       CLOUDY    40  20  44 SE8       30.34R
OSU AIRPORT    CLEAR     36  21  54 SE7       30.33R
BOLTON FIELD   PTCLDY    33  24  71 E5        30.33R WCI  28
RICKENBACK AFB PTCLDY    35  22  59 E5        30.33R
NEWARK         PTCLDY    32  22  66 NE3       30.35R
MARION         CLEAR     35  22  58 SE13      30.32R WCI  26
LANCASTER      PTCLDY    37  22  54 S6        30.35R
ZANESVILLE     PTCLDY    37  21  52 SE7       30.37R
NEW PHILLY     CLEAR     34  20  56 SE7       30.40R WCI  28
$$



USA.gov is the U.S. government's official web portal to all federal, state and local government web resources and services.